GALAXY 37 (G-37)

Last updated on Sun Jun 21 2026 00:03:09 GMT+0000 (Coordinated Universal Time)

1 57493U 23112A 26171.39489199 .00000044 00000+0 00000+0 0 9992 2 57493 0.0142 358.8482 0002022 87.9609 196.9518 1.00271511 10570
UTC large
Height (km)
Speed (km/s)
/
Latitude / Longitude
Inclination (degrees)
Orbital Period (minutes)
Azimuth
Elevation
Range (km)
Doppler Factor

Next 0 passes for location: London (51.5072 / 0.1276)

No passes found over London.
GALAXY 37 (G-37)